Retour au catalogue

STARLINK-34933

ActifCommunicationsSSO
NORAD 65253·PAYLOAD·🇺🇸 United States

Lancé Aug 18, 2025 depuis Vandenberg Space Force Base

Loading…

Prochains Passages (prochaines 24 heures)

TLE

FraisSource: CelesTrak SupGP

Époque: Sep 14, 2026, 21:11 UTC

1 65253C 25179U   26257.88312500  .00006399  00000+0  19873-3 0  2578
2 65253  97.2836 297.2275 0001030  96.4686  67.9617 15.33420840    12

Suivez STARLINK-34933 en temps réel avec AllMySat

Download on the App Store